TimeEST,TemperatureF,Dew PointF,Humidity,Sea Level PressureIn,VisibilityMPH,Wind Direction,Wind SpeedMPH,Gust SpeedMPH,PrecipitationIn,Events,Conditions,WindDirDegrees,DateUTC
12:04 AM,28.9,28.0,96,30.26,1.5,Calm,Calm,-,N/A,,Scattered Clouds,0,2012-11-20 05:04:00
12:11 AM,30.0,28.0,92,30.26,1.2,Calm,Calm,-,N/A,,Mostly Cloudy,0,2012-11-20 05:11:00
12:14 AM,30.0,28.0,92,30.26,2.5,Calm,Calm,-,N/A,,Mostly Cloudy,0,2012-11-20 05:14:00
12:21 AM,30.9,28.9,92,30.26,9.0,Calm,Calm,-,N/A,,Overcast,0,2012-11-20 05:21:00
12:52 AM,33.1,30.9,92,30.25,6.0,Calm,Calm,-,N/A,,Overcast,0,2012-11-20 05:52:00
1:52 AM,33.1,30.9,92,30.23,5.0,Calm,Calm,-,N/A,,Mostly Cloudy,0,2012-11-20 06:52:00
2:07 AM,33.1,30.0,89,30.22,2.5,Calm,Calm,-,N/A,,Mostly Cloudy,0,2012-11-20 07:07:00
2:13 AM,30.9,28.9,92,30.22,6.0,Calm,Calm,-,N/A,,Scattered Clouds,0,2012-11-20 07:13:00
2:34 AM,30.0,28.0,92,30.22,1.8,Calm,Calm,-,N/A,,Partly Cloudy,0,2012-11-20 07:34:00
2:45 AM,30.0,28.0,92,30.21,1.2,Calm,Calm,-,N/A,,Partly Cloudy,0,2012-11-20 07:45:00
2:49 AM,30.2,28.4,93,30.21,2.0,Calm,Calm,-,N/A,,Partly Cloudy,0,2012-11-20 07:49:00
2:52 AM,30.9,28.0,89,30.21,4.0,Calm,Calm,-,N/A,,Partly Cloudy,0,2012-11-20 07:52:00
3:12 AM,28.9,27.0,92,30.20,1.8,Calm,Calm,-,N/A,,Clear,0,2012-11-20 08:12:00
3:24 AM,28.9,26.1,89,30.19,4.0,Calm,Calm,-,N/A,,Clear,0,2012-11-20 08:24:00
3:34 AM,28.9,26.1,89,30.19,1.2,Calm,Calm,-,N/A,,Clear,0,2012-11-20 08:34:00
3:36 AM,28.9,26.1,89,30.19,0.8,Calm,Calm,-,N/A,,Mist,0,2012-11-20 08:36:00
3:50 AM,28.4,26.6,93,30.19,0.5,Calm,Calm,-,N/A,Fog,Light Freezing Fog,0,2012-11-20 08:50:00
3:52 AM,28.9,26.1,89,30.19,0.5,Calm,Calm,-,N/A,Fog,Light Freezing Fog,0,2012-11-20 08:52:00
3:58 AM,28.9,26.1,89,30.19,1.5,North,4.6,-,N/A,,Clear,350,2012-11-20 08:58:00
4:02 AM,28.9,27.0,92,30.19,3.0,North,4.6,-,N/A,,Clear,350,2012-11-20 09:02:00
4:43 AM,28.0,26.1,92,30.18,1.5,Calm,Calm,-,N/A,,Clear,0,2012-11-20 09:43:00
4:48 AM,28.4,26.6,93,30.18,0.8,Calm,Calm,-,N/A,,Clear,0,2012-11-20 09:48:00
4:52 AM,28.9,26.1,89,30.18,0.8,NW,3.5,-,N/A,,Clear,320,2012-11-20 09:52:00
4:59 AM,28.0,26.1,92,30.18,1.5,NNW,3.5,-,N/A,,Clear,340,2012-11-20 09:59:00
5:02 AM,28.0,26.1,92,30.18,3.0,NNW,3.5,-,N/A,,Clear,330,2012-11-20 10:02:00
5:52 AM,28.9,26.1,89,30.18,6.0,Calm,Calm,-,N/A,,Clear,0,2012-11-20 10:52:00
6:52 AM,28.9,26.1,89,30.19,2.5,West,3.5,-,N/A,,Scattered Clouds,270,2012-11-20 11:52:00
6:59 AM,28.9,27.0,92,30.19,3.0,West,3.5,-,N/A,,Mostly Cloudy,280,2012-11-20 11:59:00
7:32 AM,33.1,30.9,92,30.18,4.0,Calm,Calm,-,N/A,,Scattered Clouds,0,2012-11-20 12:32:00
7:52 AM,36.0,33.1,89,30.19,8.0,NNW,3.5,-,N/A,,Clear,330,2012-11-20 12:52:00
8:52 AM,41.0,35.1,79,30.19,10.0,NNW,5.8,-,N/A,,Clear,330,2012-11-20 13:52:00
9:52 AM,46.0,36.0,68,30.19,10.0,North,5.8,-,N/A,,Clear,10,2012-11-20 14:52:00
10:35 AM,48.0,37.9,68,30.17,10.0,NNE,8.1,-,N/A,,Mostly Cloudy,20,2012-11-20 15:35:00
10:52 AM,48.0,37.9,68,30.17,10.0,NNE,9.2,-,N/A,,Overcast,30,2012-11-20 15:52:00
11:52 AM,48.9,37.0,64,30.15,10.0,Variable,5.8,-,N/A,,Overcast,0,2012-11-20 16:52:00
12:39 PM,50.0,35.1,57,30.14,10.0,ENE,8.1,-,N/A,,Scattered Clouds,70,2012-11-20 17:39:00
12:52 PM,52.0,37.0,57,30.14,10.0,NNE,8.1,-,N/A,,Mostly Cloudy,30,2012-11-20 17:52:00
1:25 PM,51.1,35.1,54,30.13,10.0,Variable,5.8,-,N/A,,Scattered Clouds,0,2012-11-20 18:25:00
1:52 PM,50.0,35.1,57,30.12,10.0,Variable,4.6,-,N/A,,Partly Cloudy,0,2012-11-20 18:52:00
2:52 PM,48.9,35.1,59,30.13,10.0,ENE,6.9,-,N/A,,Scattered Clouds,60,2012-11-20 19:52:00
3:52 PM,46.9,35.1,63,30.14,10.0,Variable,4.6,-,N/A,,Scattered Clouds,0,2012-11-20 20:52:00
4:52 PM,37.9,33.1,83,30.14,10.0,Calm,Calm,-,N/A,,Clear,0,2012-11-20 21:52:00
5:52 PM,35.1,32.0,89,30.14,10.0,Calm,Calm,-,N/A,,Clear,0,2012-11-20 22:52:00
6:52 PM,35.1,32.0,89,30.15,10.0,SE,3.5,-,N/A,,Clear,130,2012-11-20 23:52:00
7:52 PM,33.1,30.0,89,30.15,6.0,Calm,Calm,-,N/A,,Clear,0,2012-11-21 00:52:00
8:22 PM,32.0,30.0,92,30.14,1.8,Calm,Calm,-,N/A,,Clear,0,2012-11-21 01:22:00
8:27 PM,30.9,28.9,92,30.14,0.8,Calm,Calm,-,N/A,,Clear,0,2012-11-21 01:27:00
8:33 PM,32.0,30.0,92,30.14,1.5,Calm,Calm,-,N/A,,Clear,0,2012-11-21 01:33:00
8:36 PM,32.0,30.0,92,30.15,3.0,Calm,Calm,-,N/A,,Clear,0,2012-11-21 01:36:00
8:44 PM,32.0,30.0,92,30.15,2.5,Calm,Calm,-,N/A,,Clear,0,2012-11-21 01:44:00
8:52 PM,32.0,30.0,92,30.15,7.0,Calm,Calm,-,N/A,,Clear,0,2012-11-21 01:52:00
9:52 PM,32.0,30.0,92,30.15,5.0,Calm,Calm,-,N/A,,Clear,0,2012-11-21 02:52:00
10:52 PM,30.9,30.0,96,30.14,3.0,West,3.5,-,N/A,,Clear,270,2012-11-21 03:52:00
11:52 PM,32.0,30.0,92,30.15,4.0,Calm,Calm,-,N/A,,Clear,0,2012-11-21 04:52:00